Location: Arcizac
(43.0933°N, 0.0112°E)
Time: 08:06:47
(UTC+00:00)

IRIDIUM 106 - Pass Details

Date: 14 December 2019
Orbit: 776 x 779 km, 86.4° (Epoch: 21 January)

Event Time Altitude Azimuth Distance (km) Brightness Sun altitude
Rises 18:47:16 0° 185° (S) 3,248 7.7 -25.0°
Reaches altitude 10° 18:49:36 10° 187° (S) 2,325 7.0 -25.4°
Maximum altitude 18:54:48 77° 273° (W) 804 4.4 -26.3°
Enters shadow 18:57:30 30° 355° (N) 1,386 5.5 -26.8°
